This is the latest recevied weather packets stored in our database for station/object ZL1CTS-13. If no packets are shown the sender has not sent any weather packets the latest 10 day(s).
| Time | Temp. | Humidity | Pressure | Rain* | Wind** | Luminosity | Snow |
|---|---|---|---|---|---|---|---|
| 1788146103 | 15° C | 89% | 996.6 hPa | 0.25 mm | - | - | - |
| 1788145804 | 15° C | 89% | 996.5 hPa | 0.25 mm | - | - | - |
| 1788145503 | 15.56° C | 86% | 996.4 hPa | 0.25 mm | - | - | - |
| 1788145204 | 15.56° C | 84% | 996.5 hPa | 0.25 mm | - | - | - |
| 1788145203 | 15.56° C | 84% | 996.5 hPa | 0.25 mm | - | - | - |
| 1788144904 | 16.11° C | 83% | 996.6 hPa | 0.25 mm | - | - | - |
| 1788144604 | 16.11° C | 86% | 996.6 hPa | 0.25 mm | - | - | - |
| 1788144304 | 16.11° C | 89% | 996.7 hPa | 0.25 mm | - | - | - |
| 1788144304 | 16.11° C | 89% | 996.7 hPa | 0.25 mm | - | - | - |
| 1788144004 | 15.56° C | 91% | 996.7 hPa | 0.25 mm | - | - | - |
| 1788143704 | 14.44° C | 92% | 996.5 hPa | 0.25 mm | - | - | - |
| 1788143404 | 14.44° C | 92% | 996.6 hPa | 0 mm | - | - | - |
| 1788143403 | 14.44° C | 92% | 996.6 hPa | 0 mm | - | - | - |
| 1788143104 | 14.44° C | 92% | 996.6 hPa | 0 mm | - | - | - |
| 1788142804 | 15° C | 92% | 996.6 hPa | 0 mm | - | - | - |
| 1788142504 | 15° C | 92% | 996.6 hPa | 0 mm | - | - | - |
| 1788142503 | 15° C | 92% | 996.6 hPa | 0 mm | - | - | - |
| 1788142204 | 14.44° C | 91% | 996.7 hPa | 0 mm | - | - | - |
| 1788141904 | 14.44° C | 89% | 996.7 hPa | 0 mm | - | - | - |
| 1788141605 | 15° C | 84% | 996.9 hPa | 0 mm | - | - | - |
| 1788141604 | 15° C | 84% | 996.9 hPa | 0 mm | - | - | - |
| 1788141304 | 15.56° C | 82% | 996.7 hPa | 0 mm | - | - | - |
| 1788141004 | 16.11° C | 78% | 996.7 hPa | 0 mm | - | - | - |
| 1788140704 | 17.22° C | 79% | 996.8 hPa | 0 mm | - | - | - |
| 1788140704 | 17.22° C | 79% | 996.8 hPa | 0 mm | - | - | - |
* Rain latest hour (hover to see other rain measurements)
** Current wind speed in m/s (hover to see current wind gust speed)